Regional Weather Roundup
Issued by NWS Jackson, KY

Home | Current Version | Previous Version | Text Only | Print | Product List | Glossary On
Versions: 1 2 3 4 5 6 7 8 9 10 11 12 13 14 15 16 17 18 19 20 21 22 23 24 25 26 27
000
ASUS43 KJKL 250010
RWRJKL

EAST KENTUCKY HOURLY WEATHER ROUNDUP
NATIONAL WEATHER SERVICE JACKSON KY
700 PM EST FRI NOV 24 2017

NOTE: "FAIR" INDICATES FEW OR NO CLOUDS BELOW 12,000 FEET WITH
NO SIGNIFICANT WEATHER AND/OR OBSTRUCTIONS TO VISIBILITY.

* THESE REPORTS ARE NOT UNDER NWS QUALITY CONTROL AND MAY NOT
  REPORT WEATHER SUCH AS PRECIPITATION AND FOG.

KYZ079-080-083-085-087-088-110-112-115-119-120-250100
...EASTERN KENTUCKY...

CITY           SKY/WX    TMP DP  RH WIND       PRES   REMARKS
JACKSON        CLEAR     53  26  35 S3        29.87S
6HR MIN TEMP:  53; 6HR MAX TEMP:  62;

LONDON         PTCLDY    50  33  52 CALM      29.88R
6HR MIN TEMP:  49; 6HR MAX TEMP:  61;

SOMERSET*      PTCLDY    46  32  57 CALM      29.89S
MONTICELLO*    PTCLDY    41  33  73 NE10      29.90R
6HR MIN TEMP:  40; 6HR MAX TEMP:  61;

WILLIAMSBURG*  PTCLDY    54  36  50 SE8       29.89R
MIDDLESBORO*   CLEAR     44  37  76 CALM      29.92S
6HR MIN TEMP:  43; 6HR MAX TEMP:  60;

HARLAN APT*    CLEAR     52  32  46 CALM      29.90S
PIKE CO APT*     N/A     55  28  34 CALM      29.87S
BIG SANDY APT* CLEAR     53  28  38 S3        29.86F
6HR MIN TEMP:  51; 6HR MAX TEMP:  61;

MOREHEAD APT*  CLEAR     50  18  27 S6        29.87S
$$

KYZ035-036-041-042-044-050-067-078-099-250100
...CENTRAL KENTUCKY...

CITY           SKY/WX    TMP DP  RH WIND       PRES   REMARKS
MT STERLING*   CLEAR     50  25  37 SW7       29.87S
DANVILLE*      PTCLDY    46  25  42 CALM      29.87S
LEXINGTON      PTCLDY    49  25  39 S8        29.85S
6HR MIN TEMP:  49; 6HR MAX TEMP:  59;

FRANKFORT      PTCLDY    50  25  37 S6        29.83S
6HR MIN TEMP:  48; 6HR MAX TEMP:  60;

LOUISVILLE     MOCLDY    55  26  32 S8        29.82S
6HR MIN TEMP:  53; 6HR MAX TEMP:  61;

LEBANON*         N/A     52  25  35 S8        29.86R
GLASGOW*       CLEAR     49  26  40 CALM      29.87S
BOWLING GREEN  CLEAR     51  28  41 S7        29.87R
6HR MIN TEMP:  50; 6HR MAX TEMP:  61;

$$

KYZ091>093-OHZ055-061-077-WVZ005-015-034-035-042-250100
...SOUTHERN OHIO/WEST VIRGINIA...

CITY           SKY/WX    TMP DP  RH WIND       PRES   REMARKS
COVINGTON      PTCLDY    47  30  51 S10       29.80S
COLUMBUS       PTCLDY    47  27  45 S6        29.80R
DAYTON         PTCLDY    49  28  44 S15G22    29.77S
WILMINGTON     CLEAR     44  29  55 S9        29.80S
HUNTINGTON     CLEAR     52  23  32 CALM      29.85S
CHARLESTON     CLEAR     47  22  37 SE5       29.86S
PINEVILLE*     CLEAR     37  31  78 MISG      29.94S
BECKLEY        CLEAR     47  22  37 S7        29.90S
BLUEFIELD      CLEAR     51  20  29 S7        29.92R
LOGAN CO APT*    N/A     52  21  30 CALM      29.87S
$$

VAZ002-007-008-TNZ017-027-036-066-071-250100
...SOUTHWEST VIRGINIA/EAST TENNESSEE...

CITY           SKY/WX    TMP DP  RH WIND       PRES   REMARKS
WISE*          CLEAR     45  32  61 S6        29.92S
JONESVILLE*      N/A     43  36  75 CALM      29.93F
ABINGDON*      CLEAR     47  27  45 CALM      29.93R
BRISTOL        PTCLDY    42  34  73 CALM      29.93R
MORRISTOWN*    CLEAR     46  39  76 CALM      29.92S
SEVIERVILLE*   CLEAR     46  39  76 CALM      29.92S
KNOXVILLE      MOCLDY    51  41  68 SE5       29.91S
LAFOLLETTE*    CLEAR     46  37  71 CALM      29.94S
OAK RIDGE      CLEAR     48  40  73 CALM      29.93S
CROSSVILLE     CLOUDY    50  37  61 S3        29.92R
NASHVILLE      PTCLDY    54  29  38 S5        29.89R
$$

...KEY TO REMARKS...
VSB - VISIBILITY IN MILES
WCI - WIND CHILL INDEX
HX  - HEAT INDEX

$$




USA.gov is the U.S. government's official web portal to all federal, state and local government web resources and services.